GFSMW_500_temp_231.txt.gz
Temp
-7 -8 -7 -7 -7 -7 -7 -8 -8 -8 -8 -7 -8 -7 -8 -7 -7 -7 -7 -7 -7 -8 -8 -7 -7 -7 -7 -8 -8 -8 -8 -8 -8 -8 -8 -8 -8 -9 -9 -9 -10 -10 -10
-7 -8 -7 -7 -7 -7 -7 -7 -8 -8 -8 -8 -8 -8 -8 -7 -7 -7 -7 -8 -8 -8 -8 -8 -8 -8 -7 -8 -8 -8 -7 -8 -7 -8 -8 -8 -8 -9 -9 -9 -9 -10 -10
-8 -7 -7 -7 -7 -7 -7 -7 -8 -8 -8 -8 -8 -8 -8 -7 -7 -8 -8 -8 -8 -7 -7 -8 -8 -8 -8 -8 -8 -8 -8 -8 -8 -8 -8 -7 -8 -8 -8 -9 -10 -9 -9
-8 -7 -8 -7 -7 -7 -8 -8 -8 -8 -8 -8 -8 -8 -8 -7 -8 -8 -8 -8 -8 -8 -8 -8 -8 -8 -8 -8 -8 -8 -8 -8 -8 -8 -8 -8 -8 -8 -8 -8 -9 -10 -9
-8 -8 -8 -8 -7 -8 -8 -8 -8 -8 -8 -7 -7 -7 -7 -7 -8 -8 -8 -8 -8 -8 -8 -8 -8 -8 -8 -8 -8 -8 -8 -8 -9 -8 -8 -9 -9 -9 -8 -8 -9 -9 -9
-9 -8 -8 -8 -8 -8 -8 -8 -8 -8 -8 -8 -7 -7 -7 -8 -8 -7 -8 -8 -8 -8 -8 -8 -8 -8 -8 -8 -8 -8 -8 -9 -9 -9 -9 -9 -8 -9 -9 -9 -9 -9 -9
-9 -9 -8 -8 -9 -8 -8 -8 -7 -8 -8 -8 -7 -7 -7 -7 -7 -7 -7 -7 -7 -8 -8 -8 -8 -9 -9 -9 -9 -9 -9 -9 -9 -9 -9 -9 -9 -9 -9 -9 -9 -9 -10
-9 -9 -9 -9 -9 -9 -9 -8 -8 -8 -8 -8 -8 -8 -7 -7 -7 -7 -7 -7 -7 -7 -8 -8 -9 -9 -9 -9 -9 -9 -9 -9 -9 -9 -9 -9 -9 -9 -9 -9 -9 -10 -10
-10 -9 -10 -10 -9 -9 -9 -9 -9 -8 -8 -8 -8 -8 -8 -8 -7 -8 -7 -7 -7 -7 -8 -8 -8 -8 -9 -9 -9 -9 -9 -9 -9 -9 -9 -9 -9 -9 -9 -9 -10 -10 -10
-10 -10 -10 -10 -10 -9 -9 -9 -9 -9 -9 -8 -8 -8 -8 -8 -8 -8 -7 -8 -7 -7 -7 -8 -8 -9 -9 -9 -9 -9 -9 -9 -9 -9 -9 -9 -9 -9 -9 -9 -10 -10 -10
-11 -11 -11 -10 -10 -10 -10 -9 -9 -9 -9 -9 -8 -8 -8 -8 -8 -8 -8 -8 -8 -7 -8 -8 -9 -9 -9 -9 -9 -10 -10 -10 -10 -9 -10 -10 -10 -10 -10 -10 -10 -10 -10
-11 -11 -11 -11 -11 -11 -11 -10 -10 -9 -9 -9 -9 -9 -8 -9 -8 -8 -8 -8 -8 -8 -9 -9 -9 -9 -9 -9 -9 -10 -10 -10 -10 -10 -10 -10 -10 -10 -10 -10 -10 -10 -11
-13 -13 -12 -11 -11 -11 -11 -11 -11 -11 -10 -10 -9 -9 -9 -9 -9 -9 -9 -9 -9 -8 -9 -9 -9 -10 -10 -10 -10 -10 -10 -10 -10 -10 -10 -10 -10 -10 -10 -10 -11 -11 -11
-13 -13 -12 -11 -11 -11 -11 -11 -11 -11 -11 -11 -10 -10 -9 -9 -9 -9 -9 -9 -9 -10 -9 -9 -10 -10 -10 -10 -10 -10 -10 -10 -11 -11 -11 -11 -11 -11 -11 -11 -11 -11 -11
-14 -13 -13 -12 -13 -12 -12 -12 -11 -11 -11 -11 -11 -10 -10 -10 -10 -10 -10 -10 -10 -10 -10 -10 -10 -10 -10 -10 -11 -11 -11 -11 -11 -11 -11 -11 -11 -11 -11 -11 -11 -11 -12
-15 -14 -14 -14 -13 -13 -13 -12 -12 -12 -11 -11 -11 -11 -11 -10 -10 -10 -10 -10 -10 -10 -10 -11 -10 -10 -11 -11 -11 -11 -11 -11 -12 -12 -12 -11 -12 -12 -12 -12 -12 -12 -12
-16 -15 -14 -15 -14 -13 -13 -13 -13 -12 -12 -12 -11 -11 -12 -11 -11 -11 -11 -11 -10 -11 -11 -11 -11 -11 -11 -12 -12 -12 -12 -12 -12 -12 -12 -12 -13 -13 -13 -13 -13 -13 -13
-18 -17 -16 -15 -15 -15 -14 -13 -13 -13 -13 -13 -13 -12 -12 -12 -11 -11 -11 -11 -11 -11 -11 -11 -12 -12 -12 -12 -12 -12 -12 -12 -12 -12 -13 -13 -13 -13 -13 -13 -14 -13 -14
-19 -18 -17 -16 -16 -15 -14 -14 -14 -13 -13 -13 -14 -13 -13 -12 -12 -12 -12 -11 -11 -12 -12 -12 -13 -12 -13 -13 -13 -13 -13 -13 -13 -13 -13 -13 -13 -14 -14 -14 -14 -15 -15
-20 -18 -18 -17 -17 -16 -16 -15 -15 -14 -13 -14 -14 -14 -14 -13 -13 -13 -13 -13 -12 -13 -13 -13 -13 -13 -13 -13 -13 -13 -13 -13 -13 -13 -14 -15 -15 -15 -15 -14 -15 -15 -15
-20 -20 -20 -19 -18 -18 -17 -16 -15 -15 -15 -14 -14 -14 -14 -13 -13 -13 -13 -13 -13 -13 -13 -13 -13 -13 -13 -13 -13 -14 -13 -13 -13 -13 -14 -15 -15 -15 -15 -15 -15 -15 -15
-21 -21 -21 -20 -20 -20 -19 -18 -17 -17 -16 -16 -15 -15 -14 -14 -14 -14 -13 -13 -14 -14 -14 -14 -14 -13 -13 -13 -14 -13 -14 -14 -14 -14 -14 -14 -15 -15 -15 -16 -15 -15 -15
-22 -21 -21 -21 -21 -21 -20 -19 -19 -18 -18 -17 -17 -17 -16 -15 -15 -14 -14 -14 -14 -14 -14 -15 -15 -14 -14 -14 -14 -14 -14 -15 -14 -14 -14 -14 -15 -15 -15 -16 -16 -16 -16
-22 -22 -21 -21 -21 -21 -21 -21 -20 -19 -18 -18 -18 -18 -17 -16 -16 -16 -16 -15 -14 -14 -15 -15 -15 -15 -14 -15 -14 -15 -15 -14 -13 -14 -14 -15 -15 -15 -16 -15 -16 -16 -16
-23 -23 -22 -22 -21 -21 -21 -21 -21 -21 -19 -18 -18 -18 -17 -17 -16 -16 -16 -16 -16 -15 -14 -15 -15 -14 -14 -14 -15 -15 -14 -14 -15 -15 -15 -15 -15 -16 -16 -16 -16 -16 -17
-23 -23 -23 -22 -22 -22 -21 -21 -21 -21 -20 -20 -19 -18 -18 -18 -17 -17 -16 -16 -16 -16 -15 -14 -14 -14 -15 -15 -15 -15 -15 -15 -15 -16 -15 -15 -16 -16 -16 -16 -17 -17 -17

GFSMW_500_temp_234.txt.gz
Temp
-8 -8 -8 -7 -7 -7 -7 -7 -7 -8 -8 -7 -7 -7 -7 -7 -7 -7 -7 -7 -7 -7 -7 -7 -7 -7 -7 -8 -8 -8 -8 -8 -7 -8 -8 -8 -8 -9 -9 -9 -9 -10 -9
-8 -8 -8 -8 -7 -7 -7 -7 -7 -7 -8 -8 -7 -7 -7 -7 -7 -7 -7 -7 -8 -8 -7 -7 -7 -7 -7 -8 -8 -8 -8 -8 -8 -8 -8 -8 -8 -8 -9 -9 -9 -9 -9
-8 -9 -9 -8 -8 -7 -7 -6 -7 -7 -7 -8 -8 -7 -7 -7 -7 -7 -7 -7 -7 -7 -7 -8 -8 -8 -8 -8 -8 -8 -8 -8 -8 -8 -8 -8 -8 -8 -8 -9 -10 -9 -9
-8 -9 -11 -10 -8 -7 -7 -7 -7 -7 -8 -8 -8 -8 -7 -7 -7 -7 -7 -7 -7 -7 -8 -8 -8 -8 -8 -8 -8 -8 -8 -8 -8 -8 -8 -8 -8 -8 -8 -8 -8 -9 -9
-9 -9 -9 -10 -9 -8 -7 -7 -8 -7 -7 -8 -8 -8 -7 -7 -7 -7 -7 -7 -7 -7 -8 -8 -8 -8 -8 -8 -9 -8 -8 -8 -8 -8 -8 -8 -9 -9 -9 -9 -9 -8 -9
-10 -9 -9 -9 -9 -9 -8 -8 -8 -8 -7 -7 -8 -8 -8 -7 -7 -7 -7 -7 -7 -7 -7 -7 -8 -8 -8 -9 -9 -9 -9 -9 -9 -9 -9 -8 -8 -9 -9 -9 -9 -9 -9
-10 -10 -9 -10 -10 -10 -9 -8 -8 -8 -8 -7 -7 -8 -8 -8 -8 -8 -8 -7 -7 -7 -7 -8 -8 -8 -8 -9 -9 -9 -9 -9 -9 -9 -9 -9 -9 -9 -9 -9 -9 -9 -9
-13 -13 -10 -10 -9 -9 -10 -9 -9 -8 -8 -9 -8 -7 -7 -8 -8 -8 -7 -7 -7 -7 -7 -7 -7 -7 -8 -8 -9 -9 -9 -9 -9 -9 -9 -9 -9 -9 -9 -9 -9 -9 -9
-14 -13 -11 -10 -9 -9 -9 -9 -9 -9 -8 -8 -9 -9 -8 -7 -8 -8 -8 -7 -7 -7 -7 -7 -7 -8 -8 -8 -9 -9 -9 -9 -9 -9 -9 -9 -9 -9 -9 -9 -9 -9 -9
-13 -14 -12 -11 -11 -11 -10 -10 -9 -9 -9 -9 -8 -8 -8 -8 -8 -8 -8 -8 -8 -8 -8 -8 -8 -8 -8 -8 -8 -9 -10 -10 -9 -10 -10 -10 -10 -10 -10 -10 -10 -10 -10
-14 -13 -13 -13 -13 -10 -10 -10 -10 -9 -10 -10 -9 -9 -9 -8 -8 -8 -8 -8 -8 -8 -8 -8 -8 -8 -8 -8 -8 -9 -9 -9 -9 -10 -10 -10 -10 -10 -10 -10 -10 -10 -10
-15 -13 -13 -13 -12 -12 -11 -11 -11 -10 -10 -9 -9 -9 -9 -9 -9 -8 -8 -9 -8 -9 -8 -8 -8 -8 -8 -9 -9 -10 -10 -10 -9 -10 -10 -10 -10 -11 -11 -10 -11 -11 -11
-16 -16 -14 -13 -13 -13 -12 -12 -12 -11 -10 -10 -10 -10 -10 -10 -9 -9 -9 -9 -9 -9 -9 -9 -8 -8 -8 -9 -9 -10 -10 -10 -10 -10 -10 -11 -11 -11 -11 -11 -11 -11 -11
-16 -16 -15 -14 -12 -12 -12 -12 -12 -12 -12 -12 -11 -11 -11 -10 -10 -9 -9 -9 -9 -9 -9 -9 -9 -8 -9 -9 -9 -10 -10 -10 -10 -10 -11 -11 -11 -11 -11 -12 -12 -12 -12
-17 -16 -16 -15 -14 -13 -12 -14 -13 -12 -12 -12 -12 -12 -11 -11 -11 -10 -10 -9 -9 -9 -9 -10 -9 -9 -9 -9 -10 -10 -11 -11 -11 -11 -11 -11 -12 -12 -12 -12 -12 -12 -12
-17 -17 -18 -17 -16 -15 -15 -14 -13 -12 -13 -12 -12 -12 -12 -12 -12 -11 -11 -10 -10 -10 -10 -10 -10 -10 -10 -10 -11 -11 -11 -11 -11 -12 -11 -12 -12 -12 -13 -13 -13 -13 -13
-18 -18 -18 -18 -18 -17 -15 -14 -14 -14 -13 -13 -13 -12 -12 -12 -12 -12 -13 -12 -11 -11 -10 -10 -10 -10 -10 -10 -11 -12 -12 -12 -12 -12 -12 -12 -12 -13 -13 -13 -13 -13 -13
-21 -20 -19 -19 -18 -17 -17 -16 -15 -14 -14 -14 -14 -14 -13 -13 -12 -12 -12 -12 -12 -12 -13 -11 -11 -11 -11 -11 -11 -12 -12 -12 -12 -13 -13 -13 -13 -13 -13 -13 -13 -13 -14
-21 -20 -20 -20 -18 -18 -17 -17 -16 -15 -15 -15 -14 -14 -14 -13 -13 -13 -13 -12 -12 -12 -12 -12 -12 -12 -11 -11 -11 -11 -12 -12 -13 -13 -13 -13 -13 -13 -13 -13 -13 -14 -14
-22 -22 -21 -19 -20 -19 -18 -18 -18 -17 -16 -16 -16 -15 -15 -14 -14 -13 -13 -13 -12 -12 -12 -12 -12 -12 -12 -13 -12 -12 -12 -13 -13 -13 -13 -13 -13 -13 -13 -14 -14 -14 -14
-22 -22 -22 -21 -21 -20 -21 -20 -19 -18 -18 -18 -17 -16 -15 -15 -14 -14 -14 -13 -13 -13 -13 -13 -13 -12 -13 -13 -13 -12 -12 -13 -13 -13 -13 -13 -13 -13 -13 -13 -14 -14 -14
-22 -22 -23 -22 -22 -22 -21 -22 -21 -19 -19 -18 -18 -17 -16 -16 -15 -14 -14 -14 -14 -14 -14 -13 -13 -13 -13 -13 -13 -13 -13 -14 -14 -14 -14 -13 -13 -13 -14 -13 -14 -14 -14
-23 -23 -22 -22 -22 -22 -22 -22 -22 -21 -21 -19 -19 -18 -18 -17 -16 -15 -15 -15 -16 -15 -14 -14 -14 -14 -13 -13 -14 -14 -14 -14 -15 -15 -15 -14 -14 -14 -14 -14 -14 -14 -15
-24 -24 -24 -23 -23 -22 -22 -21 -21 -22 -21 -21 -20 -19 -19 -18 -18 -18 -17 -16 -16 -16 -15 -15 -14 -15 -14 -14 -14 -14 -14 -15 -15 -14 -14 -14 -14 -14 -15 -15 -14 -16 -16
-25 -25 -24 -24 -23 -23 -22 -22 -22 -21 -21 -21 -21 -20 -20 -19 -18 -18 -18 -17 -16 -16 -16 -16 -16 -15 -15 -15 -15 -15 -15 -15 -15 -16 -15 -14 -13 -14 -15 -15 -16 -15 -15
-25 -25 -24 -24 -24 -23 -23 -23 -22 -22 -22 -21 -21 -21 -20 -20 -19 -19 -18 -18 -18 -18 -17 -17 -17 -17 -17 -15 -14 -15 -15 -14 -14 -14 -14 -14 -14 -14 -16 -16 -16 -15 -16

GFSMW_500_temp_237.txt.gz
Temp
-8 -7 -8 -7 -7 -7 -7 -8 -7 -8 -8 -8 -7 -7 -7 -7 -7 -7 -7 -7 -7 -7 -7 -7 -8 -8 -8 -8 -8 -8 -8 -8 -8 -8 -8 -8 -9 -9 -9 -9 -8 -8 -9
-8 -8 -8 -8 -7 -7 -7 -7 -8 -7 -7 -7 -8 -8 -7 -7 -7 -7 -7 -7 -8 -7 -7 -7 -7 -7 -8 -8 -8 -8 -8 -8 -8 -8 -8 -8 -8 -8 -8 -9 -9 -9 -8
-9 -9 -9 -9 -8 -7 -7 -7 -7 -8 -7 -7 -7 -7 -7 -7 -7 -7 -7 -7 -7 -7 -7 -7 -7 -8 -8 -8 -8 -8 -8 -8 -8 -8 -8 -8 -8 -8 -8 -8 -9 -9 -9
-9 -10 -10 -10 -10 -8 -7 -6 -7 -7 -8 -7 -7 -7 -7 -7 -8 -7 -7 -7 -7 -7 -7 -8 -8 -8 -8 -8 -8 -8 -8 -8 -8 -8 -8 -8 -8 -8 -8 -8 -9 -9 -9
-10 -10 -12 -12 -11 -11 -9 -8 -6 -7 -7 -8 -8 -8 -7 -8 -8 -7 -8 -8 -8 -7 -7 -8 -8 -8 -8 -8 -8 -9 -9 -9 -9 -9 -9 -9 -9 -8 -8 -8 -9 -8 -8
-11 -10 -11 -12 -12 -11 -10 -9 -9 -7 -7 -8 -8 -8 -8 -8 -8 -8 -8 -8 -8 -8 -7 -8 -8 -8 -8 -8 -8 -9 -9 -9 -9 -9 -9 -9 -9 -9 -9 -9 -9 -9 -9
-13 -12 -11 -11 -11 -12 -11 -10 -10 -9 -7 -8 -8 -8 -8 -8 -8 -8 -8 -8 -8 -8 -8 -8 -8 -8 -8 -8 -8 -8 -9 -9 -9 -9 -9 -9 -9 -9 -9 -9 -9 -9 -9
-12 -12 -12 -12 -12 -12 -12 -12 -12 -10 -9 -8 -8 -8 -8 -9 -8 -9 -8 -8 -8 -8 -8 -8 -8 -8 -8 -8 -8 -8 -8 -9 -9 -9 -10 -10 -10 -10 -9 -9 -9 -9 -9
-13 -12 -12 -13 -12 -12 -13 -13 -12 -11 -9 -8 -8 -8 -8 -8 -8 -9 -9 -8 -8 -8 -8 -8 -8 -8 -8 -8 -8 -8 -8 -9 -9 -9 -10 -10 -10 -10 -10 -10 -10 -10 -10
-14 -14 -13 -13 -14 -12 -12 -13 -12 -12 -11 -10 -9 -9 -9 -8 -8 -8 -8 -8 -8 -8 -8 -8 -8 -8 -8 -8 -8 -8 -8 -9 -9 -10 -10 -10 -10 -10 -10 -10 -10 -10 -10
-14 -14 -14 -14 -14 -13 -13 -12 -12 -12 -11 -11 -11 -10 -9 -9 -8 -8 -8 -8 -9 -9 -8 -8 -8 -8 -8 -8 -8 -8 -9 -8 -9 -10 -10 -10 -10 -10 -10 -10 -10 -11 -11
-15 -14 -14 -14 -15 -14 -14 -13 -12 -13 -12 -11 -10 -9 -9 -10 -10 -9 -9 -9 -9 -9 -9 -8 -8 -8 -8 -9 -8 -9 -9 -9 -9 -10 -10 -10 -10 -10 -10 -10 -11 -11 -11
-16 -16 -15 -14 -14 -15 -15 -15 -14 -13 -13 -13 -11 -10 -10 -10 -11 -10 -9 -9 -10 -9 -9 -9 -9 -9 -9 -9 -9 -9 -9 -9 -9 -10 -11 -11 -11 -11 -11 -11 -11 -11 -12
-17 -17 -16 -15 -15 -15 -16 -15 -15 -14 -14 -13 -13 -11 -11 -11 -11 -10 -11 -10 -10 -10 -10 -10 -9 -9 -9 -9 -9 -9 -9 -10 -10 -10 -11 -11 -11 -11 -11 -12 -12 -12 -12
-16 -17 -17 -17 -17 -16 -16 -16 -16 -15 -14 -13 -13 -13 -13 -13 -12 -11 -11 -11 -11 -10 -10 -10 -10 -10 -10 -9 -10 -10 -10 -10 -10 -11 -11 -12 -12 -12 -12 -12 -12 -12 -13
-17 -17 -16 -16 -16 -16 -16 -16 -15 -15 -14 -14 -14 -14 -13 -13 -13 -13 -13 -12 -11 -11 -11 -11 -11 -11 -10 -10 -10 -10 -11 -11 -11 -11 -11 -12 -12 -12 -12 -12 -12 -13 -13
-17 -17 -17 -17 -17 -17 -16 -16 -16 -15 -15 -14 -14 -14 -14 -13 -13 -13 -13 -13 -13 -13 -12 -12 -11 -11 -11 -11 -10 -10 -10 -11 -11 -11 -11 -12 -12 -12 -12 -12 -13 -13 -13
-19 -19 -18 -17 -17 -17 -17 -17 -17 -17 -16 -16 -15 -14 -14 -15 -14 -13 -13 -13 -13 -13 -13 -12 -12 -13 -12 -11 -12 -12 -11 -11 -11 -12 -12 -12 -12 -12 -12 -12 -13 -13 -13
-20 -20 -20 -20 -20 -19 -19 -18 -18 -18 -18 -17 -16 -16 -15 -15 -15 -14 -13 -13 -13 -13 -13 -12 -12 -12 -12 -12 -12 -12 -12 -12 -12 -12 -13 -12 -12 -12 -12 -12 -13 -13 -13
-21 -21 -21 -21 -21 -21 -21 -21 -20 -20 -19 -18 -18 -17 -16 -16 -16 -15 -14 -14 -14 -14 -13 -13 -12 -12 -12 -12 -12 -12 -12 -12 -12 -13 -14 -13 -12 -12 -13 -13 -13 -13 -14
-23 -22 -22 -22 -21 -21 -21 -21 -21 -21 -20 -20 -18 -18 -18 -17 -16 -16 -15 -15 -14 -14 -14 -14 -13 -12 -12 -12 -12 -12 -13 -13 -13 -13 -13 -14 -14 -13 -14 -14 -14 -14 -14
-23 -23 -23 -23 -23 -23 -22 -22 -22 -21 -21 -20 -20 -19 -18 -18 -18 -17 -16 -16 -15 -15 -14 -14 -14 -14 -13 -13 -13 -13 -13 -12 -11 -14 -13 -14 -14 -14 -14 -14 -15 -15 -15
-24 -24 -23 -23 -22 -23 -23 -23 -22 -22 -22 -22 -22 -21 -20 -19 -18 -18 -18 -17 -16 -16 -15 -15 -14 -14 -14 -14 -13 -13 -13 -13 -13 -14 -14 -14 -14 -14 -15 -15 -15 -15 -15
-24 -24 -24 -24 -23 -23 -24 -24 -23 -23 -23 -22 -22 -22 -22 -21 -20 -19 -19 -19 -18 -17 -16 -15 -15 -15 -15 -15 -14 -14 -14 -14 -14 -14 -14 -14 -14 -14 -15 -15 -15 -15 -15
-24 -24 -24 -24 -24 -24 -24 -24 -24 -24 -24 -23 -22 -22 -22 -22 -22 -21 -21 -20 -19 -19 -19 -17 -16 -16 -15 -16 -17 -16 -15 -15 -15 -15 -15 -15 -15 -15 -15 -15 -15 -15 -16
-25 -25 -24 -24 -24 -24 -24 -24 -24 -24 -24 -24 -23 -23 -22 -22 -21 -21 -21 -20 -20 -20 -19 -19 -19 -18 -17 -17 -17 -17 -17 -16 -15 -15 -13 -15 -15 -15 -15 -15 -15 -15 -15

GFSMW_500_temp_240.txt.gz
Temp
-9 -8 -8 -8 -7 -7 -8 -8 -8 -8 -8 -8 -8 -8 -7 -7 -7 -7 -7 -7 -7 -7 -7 -7 -7 -7 -8 -8 -8 -8 -8 -8 -8 -8 -8 -8 -9 -9 -9 -9 -9 -8 -8
-9 -10 -9 -8 -8 -7 -7 -7 -8 -8 -8 -8 -8 -8 -8 -7 -7 -7 -7 -8 -7 -7 -7 -7 -7 -7 -8 -8 -8 -8 -8 -8 -8 -8 -8 -9 -9 -8 -9 -9 -9 -9 -9
-10 -9 -10 -9 -8 -8 -7 -7 -7 -8 -8 -8 -8 -8 -8 -7 -7 -7 -8 -8 -8 -8 -7 -7 -8 -8 -8 -8 -8 -8 -8 -8 -8 -8 -8 -9 -9 -9 -9 -9 -9 -9 -9
-10 -10 -10 -10 -9 -8 -8 -8 -8 -7 -8 -8 -8 -8 -8 -8 -8 -8 -7 -7 -7 -8 -8 -8 -7 -8 -8 -8 -8 -9 -9 -8 -9 -9 -9 -9 -9 -9 -9 -9 -9 -9 -9
-10 -10 -10 -10 -9 -9 -8 -8 -8 -8 -8 -8 -8 -8 -8 -8 -8 -8 -8 -8 -7 -8 -8 -8 -8 -8 -8 -8 -8 -8 -9 -8 -8 -9 -9 -9 -9 -9 -9 -9 -9 -9 -9
-11 -11 -10 -10 -10 -9 -9 -9 -9 -9 -8 -8 -8 -8 -8 -8 -8 -8 -8 -8 -8 -8 -8 -8 -8 -8 -8 -8 -8 -8 -8 -8 -8 -8 -9 -9 -9 -9 -9 -9 -9 -9 -10
-13 -12 -11 -11 -11 -11 -10 -10 -12 -11 -9 -8 -8 -8 -9 -9 -8 -8 -8 -9 -8 -8 -8 -8 -8 -8 -8 -8 -8 -8 -8 -9 -8 -9 -9 -9 -9 -9 -9 -9 -9 -9 -10
-14 -14 -13 -12 -13 -12 -11 -11 -12 -12 -11 -10 -9 -10 -9 -9 -9 -9 -9 -9 -9 -9 -9 -9 -8 -8 -8 -8 -8 -8 -8 -8 -9 -9 -9 -9 -9 -9 -10 -9 -9 -9 -10
-14 -14 -13 -12 -14 -14 -13 -12 -12 -12 -12 -12 -11 -9 -10 -9 -9 -10 -9 -9 -9 -9 -9 -9 -8 -9 -8 -8 -8 -8 -9 -8 -9 -9 -9 -9 -9 -9 -10 -10 -9 -9 -9
-15 -14 -14 -13 -13 -13 -14 -14 -12 -12 -12 -12 -13 -13 -12 -10 -10 -9 -10 -10 -10 -9 -9 -9 -9 -9 -9 -9 -8 -8 -8 -8 -9 -9 -9 -9 -10 -10 -10 -10 -10 -10 -10
-15 -15 -15 -14 -14 -13 -14 -14 -14 -12 -12 -12 -13 -13 -13 -12 -10 -9 -9 -9 -10 -10 -10 -9 -9 -9 -9 -9 -9 -9 -9 -8 -9 -9 -9 -9 -10 -10 -10 -10 -10 -10 -10
-16 -15 -15 -15 -15 -15 -13 -14 -14 -14 -13 -13 -13 -13 -13 -14 -11 -10 -9 -9 -9 -10 -10 -10 -9 -9 -9 -9 -9 -9 -9 -9 -9 -10 -9 -10 -10 -10 -11 -11 -11 -11 -11
-17 -16 -16 -15 -15 -14 -14 -14 -15 -14 -15 -14 -13 -13 -13 -14 -14 -12 -13 -11 -11 -10 -10 -9 -9 -9 -9 -9 -9 -9 -10 -10 -10 -10 -10 -10 -10 -10 -11 -12 -11 -11 -12
-17 -17 -15 -15 -15 -15 -16 -15 -15 -15 -14 -14 -13 -13 -13 -13 -13 -13 -13 -13 -12 -11 -10 -10 -10 -10 -9 -10 -10 -10 -10 -10 -10 -10 -10 -10 -11 -11 -11 -12 -12 -12 -12
-18 -17 -16 -17 -15 -15 -16 -16 -15 -15 -15 -15 -15 -14 -14 -14 -13 -13 -13 -14 -12 -12 -12 -11 -11 -10 -10 -10 -10 -10 -10 -10 -10 -11 -11 -11 -11 -11 -11 -12 -12 -13 -12
-18 -17 -16 -16 -16 -17 -16 -16 -16 -15 -15 -15 -15 -15 -15 -14 -14 -14 -14 -13 -14 -14 -13 -13 -12 -11 -11 -10 -10 -10 -10 -11 -11 -11 -11 -11 -11 -11 -12 -12 -13 -13 -13
-19 -18 -18 -17 -17 -16 -17 -16 -17 -17 -17 -16 -16 -15 -14 -14 -14 -14 -14 -14 -14 -14 -13 -13 -13 -12 -12 -11 -11 -11 -11 -11 -11 -11 -11 -11 -12 -12 -12 -12 -12 -12 -13
-21 -21 -19 -18 -17 -17 -17 -16 -17 -17 -16 -16 -16 -16 -16 -15 -15 -15 -15 -14 -14 -14 -13 -13 -13 -13 -13 -12 -12 -11 -12 -12 -12 -12 -12 -12 -12 -12 -12 -12 -12 -13 -13
-20 -20 -21 -19 -20 -18 -18 -18 -18 -18 -17 -17 -16 -17 -16 -16 -16 -16 -16 -15 -14 -14 -14 -14 -13 -13 -13 -13 -13 -12 -12 -12 -12 -12 -12 -12 -12 -12 -12 -12 -13 -13 -13
-22 -22 -22 -21 -21 -21 -22 -21 -20 -18 -19 -19 -17 -17 -17 -17 -17 -16 -16 -16 -16 -15 -14 -14 -14 -13 -13 -13 -13 -13 -12 -12 -12 -12 -11 -11 -12 -12 -12 -12 -12 -14 -14
-24 -23 -23 -23 -22 -22 -21 -20 -20 -19 -20 -20 -20 -19 -17 -17 -17 -17 -17 -17 -16 -16 -16 -15 -14 -14 -13 -13 -13 -13 -13 -13 -12 -12 -12 -12 -12 -11 -12 -12 -12 -12 -13
-24 -24 -23 -23 -23 -23 -22 -22 -22 -22 -21 -21 -21 -21 -21 -20 -19 -18 -18 -18 -18 -18 -17 -16 -15 -15 -14 -14 -13 -13 -13 -13 -13 -13 -12 -12 -12 -12 -12 -11 -10 -13 -13
-24 -23 -23 -23 -23 -23 -23 -23 -23 -22 -22 -22 -22 -22 -22 -21 -20 -20 -19 -19 -19 -18 -18 -18 -17 -16 -16 -15 -14 -14 -14 -13 -13 -13 -13 -12 -12 -12 -12 -12 -12 -14 -14
-24 -24 -24 -24 -23 -23 -23 -23 -22 -22 -23 -22 -22 -22 -22 -22 -22 -22 -21 -20 -20 -19 -18 -18 -18 -17 -17 -16 -16 -15 -15 -14 -14 -13 -13 -13 -13 -12 -10 -13 -13 -13 -14
-25 -25 -25 -25 -24 -23 -23 -23 -22 -22 -22 -22 -22 -22 -22 -22 -22 -22 -22 -22 -21 -21 -20 -19 -18 -18 -18 -17 -17 -16 -16 -15 -15 -14 -14 -13 -13 -13 -13 -14 -14 -14 -15
-24 -24 -25 -25 -24 -24 -24 -23 -23 -23 -22 -22 -22 -22 -22 -22 -22 -22 -22 -22 -21 -21 -21 -21 -20 -20 -19 -19 -18 -18 -17 -16 -16 -15 -15 -14 -14 -14 -14 -15 -14 -14 -15

GFSMW_500_temp_243.txt.gz
Temp
-9 -10 -10 -9 -9 -9 -8 -8 -8 -8 -8 -8 -8 -8 -8 -8 -8 -8 -8 -7 -8 -8 -7 -7 -7 -7 -8 -8 -8 -8 -8 -8 -8 -8 -8 -8 -8 -8 -8 -8 -9 -8 -8
-10 -10 -10 -9 -9 -9 -9 -9 -9 -9 -8 -8 -8 -8 -9 -8 -8 -8 -7 -8 -8 -8 -8 -7 -7 -8 -7 -7 -8 -8 -8 -8 -8 -8 -8 -9 -9 -9 -9 -9 -9 -9 -9
-10 -10 -10 -11 -10 -9 -8 -8 -8 -9 -9 -9 -8 -8 -8 -8 -8 -8 -8 -8 -8 -8 -8 -8 -8 -8 -8 -8 -8 -8 -8 -8 -8 -8 -8 -9 -9 -9 -9 -9 -9 -9 -9
-10 -10 -11 -11 -11 -10 -9 -9 -9 -9 -9 -9 -8 -8 -8 -8 -8 -9 -8 -8 -8 -8 -8 -8 -8 -8 -8 -8 -9 -9 -9 -9 -9 -9 -9 -9 -9 -9 -10 -10 -10 -10 -10
-11 -11 -11 -11 -10 -11 -10 -10 -9 -9 -9 -9 -9 -9 -8 -9 -9 -8 -8 -9 -8 -8 -9 -8 -8 -8 -9 -9 -9 -9 -9 -9 -9 -9 -9 -9 -9 -9 -9 -10 -10 -10 -10
-11 -11 -12 -11 -11 -11 -11 -10 -10 -9 -9 -9 -9 -9 -9 -9 -9 -9 -9 -9 -9 -9 -9 -9 -9 -9 -9 -9 -9 -9 -9 -9 -9 -9 -9 -9 -9 -9 -9 -9 -10 -9 -10
-12 -11 -12 -13 -11 -11 -11 -11 -10 -10 -10 -9 -9 -9 -9 -9 -9 -9 -9 -9 -9 -9 -9 -10 -10 -9 -9 -9 -9 -8 -8 -9 -8 -8 -9 -9 -9 -9 -9 -9 -9 -9 -10
-14 -13 -13 -13 -13 -12 -11 -11 -11 -11 -11 -10 -10 -10 -10 -9 -10 -10 -9 -9 -9 -9 -10 -9 -9 -9 -9 -9 -9 -9 -9 -9 -8 -9 -9 -9 -9 -9 -9 -9 -9 -9 -9
-15 -14 -14 -13 -13 -13 -13 -12 -11 -12 -12 -12 -12 -11 -11 -11 -10 -10 -10 -11 -10 -10 -10 -10 -10 -9 -9 -9 -9 -9 -9 -9 -9 -9 -9 -9 -9 -9 -9 -10 -9 -9 -8
-15 -15 -15 -14 -13 -13 -12 -12 -12 -13 -12 -12 -12 -12 -12 -12 -12 -11 -9 -11 -11 -10 -10 -10 -10 -10 -10 -10 -10 -9 -9 -9 -9 -9 -9 -9 -10 -10 -10 -10 -10 -10 -9
-16 -16 -15 -15 -15 -14 -13 -12 -13 -13 -13 -13 -12 -12 -13 -12 -13 -10 -10 -10 -12 -11 -10 -10 -11 -11 -11 -10 -10 -10 -9 -9 -9 -9 -9 -9 -10 -10 -10 -10 -11 -11 -10
-17 -17 -16 -15 -15 -15 -14 -14 -13 -13 -13 -14 -13 -13 -13 -13 -12 -9 -11 -11 -9 -10 -11 -11 -11 -11 -12 -11 -11 -10 -10 -10 -9 -9 -10 -9 -10 -10 -10 -10 -11 -11 -11
-18 -17 -16 -16 -15 -15 -15 -15 -15 -14 -13 -14 -14 -13 -13 -13 -13 -13 -14 -14 -12 -13 -13 -12 -11 -11 -11 -11 -11 -10 -10 -10 -10 -10 -10 -10 -10 -10 -10 -10 -10 -11 -11
-18 -18 -17 -17 -16 -15 -15 -15 -15 -15 -14 -14 -14 -14 -14 -13 -13 -13 -14 -14 -15 -14 -14 -13 -11 -11 -11 -12 -11 -11 -10 -10 -10 -10 -10 -10 -10 -10 -11 -11 -11 -11 -11
-19 -17 -17 -17 -17 -16 -16 -16 -16 -15 -15 -15 -15 -15 -14 -14 -13 -14 -14 -14 -14 -14 -14 -13 -13 -13 -13 -12 -12 -11 -11 -11 -11 -11 -10 -10 -10 -11 -11 -11 -11 -11 -11
-20 -20 -18 -17 -18 -17 -17 -16 -16 -15 -14 -15 -15 -15 -15 -15 -15 -15 -15 -15 -15 -15 -15 -14 -13 -13 -13 -13 -13 -12 -11 -12 -11 -11 -11 -11 -11 -11 -11 -11 -12 -12 -12
-21 -21 -20 -18 -17 -17 -17 -17 -17 -17 -16 -16 -15 -15 -15 -14 -14 -14 -15 -15 -15 -15 -15 -14 -14 -14 -13 -13 -13 -13 -12 -12 -12 -12 -12 -12 -12 -12 -12 -12 -12 -12 -12
-21 -21 -20 -20 -19 -18 -17 -17 -17 -17 -17 -17 -17 -16 -16 -15 -15 -15 -15 -15 -16 -16 -16 -15 -15 -14 -14 -14 -14 -14 -13 -12 -12 -12 -12 -12 -12 -12 -12 -12 -12 -12 -11
-21 -22 -21 -21 -21 -21 -20 -19 -18 -17 -17 -17 -17 -17 -17 -16 -16 -16 -16 -15 -15 -16 -16 -16 -15 -15 -15 -15 -14 -14 -14 -13 -13 -12 -12 -12 -12 -12 -12 -12 -12 -12 -12
-24 -23 -23 -23 -22 -22 -20 -20 -20 -20 -19 -18 -17 -17 -17 -17 -17 -17 -17 -16 -16 -16 -16 -16 -16 -15 -15 -15 -15 -15 -14 -14 -13 -13 -13 -13 -12 -12 -12 -12 -12 -12 -11
-24 -23 -23 -23 -23 -23 -23 -22 -21 -21 -22 -21 -19 -19 -19 -18 -17 -17 -17 -17 -17 -17 -17 -16 -16 -16 -16 -16 -16 -16 -15 -14 -14 -14 -13 -13 -13 -13 -13 -12 -13 -12 -12
-23 -23 -23 -23 -23 -23 -23 -23 -23 -23 -22 -21 -21 -21 -21 -20 -20 -19 -18 -17 -17 -17 -17 -17 -17 -17 -16 -16 -16 -16 -16 -15 -14 -14 -14 -14 -13 -13 -13 -13 -13 -13 -12
-23 -23 -23 -23 -23 -22 -22 -22 -22 -22 -23 -22 -22 -22 -21 -20 -20 -19 -18 -18 -18 -18 -18 -17 -17 -17 -17 -17 -17 -16 -16 -16 -15 -15 -14 -14 -14 -13 -13 -13 -13 -13 -13
-23 -23 -23 -23 -23 -23 -24 -24 -22 -22 -22 -22 -22 -21 -21 -21 -20 -18 -18 -19 -20 -20 -20 -18 -17 -18 -18 -18 -18 -17 -17 -16 -16 -16 -16 -15 -15 -14 -14 -14 -13 -13 -13
-23 -23 -23 -23 -23 -24 -24 -24 -24 -24 -23 -21 -21 -21 -21 -21 -20 -21 -21 -21 -21 -21 -21 -20 -19 -18 -17 -18 -18 -17 -17 -18 -18 -18 -16 -16 -15 -15 -15 -14 -14 -14 -13
-23 -23 -23 -23 -23 -23 -24 -24 -23 -23 -23 -22 -22 -22 -22 -21 -21 -21 -21 -21 -21 -21 -21 -21 -21 -20 -19 -20 -20 -19 -18 -18 -18 -17 -17 -17 -16 -16 -16 -15 -15 -15 -14